Location: Kavul?ru
(16.6288°N, 80.5832°E)
Time: 19:49:24
(UTC+00:00)

deb Centaur AC-2 - Pass Details

Date: 15 May 2026
Orbit: 583 x 1322 km, 30.0° (Epoch: 7 June)

Event Time Altitude Azimuth Distance (km) Brightness Sun altitude
Exits shadow 23:10:35 20° 234° (SW) 1,387 5.2 -13.3°
Maximum altitude 23:13:34 74° 152° (SSE) 645 4.1 -12.6°
Drops below altitude 10° 23:18:25 10° 67° (ENE) 2,130 8.4 -11.5°
Sets 23:21:01 0° 65° (ENE) 3,152 10.0 -11.0°
